Header for Extended Forecast Station List Page

Search by: ID | Name | Date | Parm | Value | Avg | % Avg
Sort by: ID | Name | Date | Parm | Value | Avg | % Avg

Enter search or view all records.

Click on id for station plot
#IDNameDateParmValueAvg% Avg
0HWRI1BIG LOST-AT HOWELL RANCH NEAR CHILLY02-11-2019DISCHARGE (KAF)678182
1MACI1BIG LOST-MACKAY RESERVOIR NEAR MACKAY02-11-2019INFLOW (KAF)618274
2HALI1BIG WOOD-AT HAILEY02-11-2019DISCHARGE (KAF)11414281
3MAGI1BIG WOOD-MAGIC DAM02-11-2019INFLOW (KAF)13719271
4BITM8BITTERROOT-NEAR MISSOULA02-11-2019DISCHARGE (KAF)67682282
5BONM8BLACKFOOT-NEAR BONNER02-11-2019DISCHARGE (KAF)49756189
6BIGI1BOISE-AT GLENWOOD BRIDGE02-11-2019DISCHARGE (KAF)32432998
7LUCI1BOISE-LUCKY PEAK DAM02-11-2019INFLOW (KAF)897MM
8PARI1BOISE-NEAR PARMA02-11-2019DISCHARGE (KAF)36941090
9HOTI1BRUNEAU-NEAR HOT SPRINGS02-11-2019DISCHARGE (KAF)11115572
10BULO3BULLY CREEK-BULLY CREEK DAM02-11-2019INFLOW (KAF)229248
11BUDW1BUMPING-BUMPING LAKE DAM02-11-2019INFLOW (KAF)858599
12CHDW1CHELAN-LAKE CHELAN DAM02-11-2019INFLOW (KAF)48661879
13ABOM8CLARK FORK-ABOVE MISSOULA02-11-2019DISCHARGE (KAF)883103485
14DLGM8CLARK FORK-AT DEER LODGE02-11-2019DISCHARGE (KAF)687887
15SRGM8CLARK FORK-AT ST REGIS02-11-2019DISCHARGE (KAF)2147257483
16BELM8CLARK FORK-BELOW MISSOULA02-11-2019DISCHARGE (KAF)1559187683
17CABI1CLARK FORK-CABINET GORGE DAM02-11-2019INFLOW (KAF)4836721667
18NOXM8CLARK FORK-NOXON RAPIDS DAM02-11-2019INFLOW (KAF)4363688263
19DRMM8CLARK FORK-NR DRUMMOND02-11-2019DISCHARGE (KAF)212MM
20CLUW1CLE ELUM-CLE ELUM LAKE02-11-2019INFLOW (KAF)299290103
21ORFI1CLEARWATER-AT OROFINO02-11-2019DISCHARGE (KAF)3700376098
22SPDI1CLEARWATER-AT SPALDING02-11-2019DISCHARGE (KAF)5251596288
23COEI1COEUR D ALENE-COEUR D ALENE LAKE02-11-2019INFLOW (KAF)2507277390
24CIBW1COLUMBIA-AT INTL BOUNDARY02-11-2019DISCHARGE (KAF)17823MM
25BONO3COLUMBIA-BONNEVILLE DAM02-11-2019INFLOW (KAF)411625459875
26CHJW1COLUMBIA-CHIEF JOSEPH DAM02-11-2019INFLOW (KAF)205822709876
27GCDW1COLUMBIA-GRAND COULEE DAM02-11-2019INFLOW (KAF)215752782678
28JDAO3COLUMBIA-JOHN DAY DAM02-11-2019INFLOW (KAF)398405272876
29MCDW1COLUMBIA-MCNARY DAM02-11-2019INFLOW (KAF)375975011175
30PRWW1COLUMBIA-PRIEST RAPIDS DAM02-11-2019INFLOW (KAF)228393023876
31RRHW1COLUMBIA-ROCKY REACH DAM02-11-2019INFLOW (KAF)219682915175
32TDAO3COLUMBIA-THE DALLES DAM02-11-2019INFLOW (KAF)402015210177
33WANW1COLUMBIA-WANAPUM DAM02-11-2019INFLOW (KAF)228462976177
34WELW1COLUMBIA-WELLS DAM02-11-2019INFLOW (KAF)216712873675
35DEDI1DEADWOOD-NEAR LOWMAN02-11-2019INFLOW (KAF)799384
36MODO3DESCHUTES-AT MOODY NR BIGGS02-11-2019DISCHARGE (KAF)1393156889
37ARDW1ENTIAT-NEAR ARDENVOIR02-11-2019DISCHARGE (KAF)8911974
38CHEI1FALL RIVER-NEAR CHESTER02-11-2019DISCHARGE (KAF)272260104
39CFMM8FLATHEAD-AT COLUMBIA FALLS02-11-2019DISCHARGE (KAF)2115290373
40KERM8FLATHEAD-KERR DAM02-11-2019INFLOW (KAF)2370369264
41TRYO3GRANDE RONDE-TROY02-11-2019DISCHARGE (KAF)1091118392
42REXI1HENRYS FORK-AT REXBURG02-11-2019DISCHARGE (KAF)62566994
43ANTI1HENRYS FORK-AT ST. ANTHONY02-11-2019DISCHARGE (KAF)577576100
44IPDI1HENRYS FORK-ISLAND PARK DAM02-11-2019INFLOW (KAF)171171100
45HODO3HOOD-NEAR TUCKER BRIDGE02-11-2019DISCHARGE (KAF)26828395
46SERO3JOHN DAY-AT SERVICE CK02-11-2019DISCHARGE (KAF)73289882
47KADW1KACHESS-KACHESS DAM02-11-2019INFLOW (KAF)929696
48LAUW1KETTLE-AT LAURIER02-11-2019DISCHARGE (KAF)998130577
49PITW1KLICKITAT-NEAR PITT02-11-2019DISCHARGE (KAF)43553282
50BFEI1KOOTENAI-AT BONNERS FERRY02-11-2019STAGE (FT)MMM
51LEOI1KOOTENAI-AT LEONIA02-11-2019DISCHARGE (KAF)2581333477
52LYDM8KOOTENAI-LIBBY DAM02-11-2019INFLOW (KAF)2151314168
53LWRI1LITTLE WOOD-LITTLE WOOD DAM02-11-2019INFLOW (KAF)456371
54BERO3MALHEUR-AGENCY VALLEY DAM02-11-2019INFLOW (KAF)325262
55VALO3MALHEUR-NEAR VALE02-11-2019DISCHARGE (KAF)556485
56WRMO3MALHEUR-WARM SPRINGS DAM02-11-2019INFLOW (KAF)8374112
57MYKO3MCKAY CREEK-NEAR PILOT ROCK02-11-2019DISCHARGE (KAF)5338139
58PATW1METHOW-NEAR PATEROS02-11-2019DISCHARGE (KAF)39955672
59WGCM8MF FLATHEAD-NEAR WEST GLACIER02-11-2019DISCHARGE (KAF)81498483
60CLFW1NACHES-NEAR CLIFFDEL02-11-2019DISCHARGE (KAF)25729986
61NACW1NACHES-NEAR NACHES02-11-2019DISCHARGE (KAF)396376105
62DWRI1NF CLEARWATER-DWORSHAK DAM02-11-2019INFLOW (KAF)2406242299
63FCFM8NF FLATHEAD-NEAR COLUMBIA FALLS02-11-2019DISCHARGE (KAF)767102375
64MONO3NF JOHN DAY-AT MONUMENT02-11-2019DISCHARGE (KAF)53462086
65CSDI1NF PAYETTE-CASCADE DAM02-11-2019INFLOW (KAF)37640493
66TONW1OKANOGAN-NEAR TONASKET02-11-2019DISCHARGE (KAF)711101670
67OWYO3OWYHEE-OWYHEE DAM02-11-2019INFLOW (KAF)26236372
68EMMI1PAYETTE-NEAR EMMETT02-11-2019DISCHARGE (KAF)781103376
69ALFW1PEND OREILLE-ALBENI FALLS DAM02-11-2019INFLOW (KAF)6009874569
70HOPI1PEND OREILLE-PEND OREILLE LAKE NR HOPE02-11-2019LAKE ELEVATION (FT)MMM
71PIHI1PORTNEUF-AT POCATELLO02-11-2019DISCHARGE (KAF)8210280
72PRTI1PRIEST-NEAR PRIEST RIVER02-11-2019DISCHARGE (KAF)56565287
73RCCM8ROCK CREEK-NEAR CLINTON02-11-2019DISCHARGE (KAF)14316586
74WHBI1SALMON-AT WHITEBIRD02-11-2019DISCHARGE (KAF)3045384979
75ARAI1SF BOISE-ANDERSON RANCH DAM02-11-2019INFLOW (KAF)31740478
76HHWM8SF FLATHEAD-HUNGRY HORSE DAM02-11-2019INFLOW (KAF)1147134186
77PLDI1SF SNAKE-PALISADES DAM02-11-2019INFLOW (KAF)1526172189
78SIFI1SNAKE-AB EAGLE ROCK NR IDAHO FALLS02-11-2019DISCHARGE (KAF)1560175489
79AFRI1SNAKE-AMERICAN FALLS RESERVOIR02-11-2019INFLOW (KAF)1749222079
80SNAI1SNAKE-AT BLACKFOOT02-11-2019DISCHARGE (KAF)1182153677
81MILI1SNAKE-AT MILNER02-11-2019DISCHARGE (KAF)39268457
82WEII1SNAKE-AT WEISER02-11-2019DISCHARGE (KAF)4050530476
83SWAI1SNAKE-BELOW SWAN FALLS02-11-2019DISCHARGE (KAF)2101271977
84BRNI1SNAKE-BROWNLEE DAM02-11-2019INFLOW (KAF)4501572979
85IHDW1SNAKE-ICE HARBOR DAM02-11-2019INFLOW (KAF)139001779678
86JLKW4SNAKE-JACKSON LAKE AT DAM02-11-2019INFLOW (KAF)41844793
87LGSW1SNAKE-LITTLE GOOSE DAM02-11-2019INFLOW (KAF)137081770077
88LGDW1SNAKE-LOWER GRANITE DAM02-11-2019INFLOW (KAF)137081766578
89LMNW1SNAKE-LOWER MONUMENTAL DAM02-11-2019INFLOW (KAF)139001794677
90ALPW4SNAKE-NEAR ALPINE02-11-2019DISCHARGE (KAF)998109491
91ANAW1SNAKE-NEAR ANATONE02-11-2019DISCHARGE (KAF)84571168072
92BFTI1SNAKE-NEAR BLACKFOOT02-11-2019DISCHARGE (KAF)1155152876
93HEII1SNAKE-NEAR HEISE02-11-2019DISCHARGE (KAF)1555170391
94JKSW4SNAKE-NEAR JACKSON02-11-2019DISCHARGE (KAF)74982191
95SHYI1SNAKE-NEAR SHELLEY02-11-2019DISCHARGE (KAF)1443176882
96LLKW1SPOKANE-AT LONGLAKE02-11-2019INFLOW (KAF)2722332782
97SPOW1SPOKANE-AT SPOKANE02-11-2019DISCHARGE (KAF)2359MM
98SJMI1ST JOE-AT ST MARIES02-11-2019STAGE (FT)MMM
99SATI1ST MARIES-NEAR SANTA02-11-2019DISCHARGE (KAF)15015099
100STRM8ST. REGIS-NEAR ST. REGIS02-11-2019DISCHARGE (KAF)16522374
101TNAW1TEANAWAY-BELOW FORKS02-11-2019DISCHARGE (KAF)144131110
102TEAI1TETON-NEAR ST. ANTHONY02-11-2019DISCHARGE (KAF)20822493
103RILW1TIETON-RIMROCK LAKE NEAR RIMROCK02-11-2019INFLOW (KAF)11914582
104PDTO3UMATILLA-AT PENDLETON02-11-2019DISCHARGE (KAF)228194118
105GIBO3UMATILLA-NEAR GIBBON02-11-2019DISCHARGE (KAF)10285121
106UMAO3UMATILLA-NEAR UMATILLA02-11-2019DISCHARGE (KAF)225158142
107TCHW1WALLA WALLA-NEAR TOUCHET02-11-2019DISCHARGE (KAF)217204107
108WSRI1WEISER-NEAR WEISER02-11-2019DISCHARGE (KAF)519431120
109PESW1WENATCHEE-AT PESHASTIN02-11-2019DISCHARGE (KAF)87697190
110UNDW1WHITE SALMON-NEAR UNDERWOOD02-11-2019DISCHARGE (KAF)29436082
111RIDI1WILLOW CREEK-RIRIE DAM02-11-2019INFLOW (KAF)5542133
112EASW1YAKIMA-AT EASTON02-11-2019DISCHARGE (KAF)7110171
113KIOW1YAKIMA-AT KIONA02-11-2019DISCHARGE (KAF)846103182
114UMTW1YAKIMA-AT UMTANUM02-11-2019DISCHARGE (KAF)56660494
115KEDW1YAKIMA-KEECHELUS LAKE02-11-2019INFLOW (KAF)101100100
116PARW1YAKIMA-NEAR PARKER02-11-2019DISCHARGE (KAF)53065581